{"data":{"norad_id":67339,"intl_designator":"2026-003F","name":"STARLINK-36451","alt_names":[],"object_type":"PAYLOAD","status":"ACTIVE","operator":null,"country":"US","launch_date":"2026-01-09","launch_site_code":"AFETR","launch_vehicle":null,"mission":null,"orbit_class":"UNKNOWN","rcs_meters":null,"size_class":null,"mass_kg":null,"dimensions":null,"purposes":["comms"],"wikipedia_slug":null,"has_3d_model":false,"image_url":null,"decayed_at":null,"tle_current":{"epoch":"2026-09-19T13:35:21.228288Z","epoch_age_seconds":156036,"freshness":"FRESH","line1":"1 67339U 26003F   26262.56621792 -.00002296  00000+0 -73994-4 0  9991","line2":"2 67339  43.0004 212.2544 0001710 283.9484  76.1177 15.27549051 38478","mean_motion":15.27549051,"eccentricity":0.000171,"inclination_deg":43.0004,"raan_deg":212.2544,"arg_perigee_deg":283.9484,"mean_anomaly_deg":76.1177,"bstar":-7.3994e-5,"rev_number":3847,"period_min":94.268658610819,"perigee_km":481.96849137448,"apogee_km":484.31504871383,"semimajor_km":6861.2787700442,"source":"CELESTRAK","updated_at":"2026-09-20T09:00:43.511754Z"}}}